| time (UTC) | temp F | wind direction | speed knots | gust knots | rain 1hr in | rain 24hr in | rain mn in | humidity % | barometer mb |
| 20260505230810 | 49 | 27 | 1.7 | 2.6 | 0.00 | 0.39 | 0.39 | 78 | 1010.7 |
| 20260505230307 | 49 | 349 | 7.0 | 8.7 | 0.00 | 0.39 | 0.39 | 78 | 1010.6 |
| 20260505225803 | 49 | 6 | 1.7 | 3.5 | 0.00 | 0.39 | 0.39 | 78 | 1010.3 |
| 20260505225300 | 49 | 10 | 3.5 | 6.1 | 0.00 | 0.39 | 0.39 | 78 | 1010.4 |
| 20260505224755 | 49 | 12 | 2.6 | 2.6 | 0.00 | 0.39 | 0.39 | 77 | 1010.5 |
| 20260505224253 | 49 | 23 | 3.5 | 6.1 | 0.00 | 0.39 | 0.39 | 77 | 1010.3 |
| 20260505223751 | 49 | 28 | 6.1 | 7.8 | 0.00 | 0.39 | 0.39 | 76 | 1010.4 |
| 20260505223247 | 49 | 351 | 3.5 | 5.2 | 0.00 | 0.39 | 0.39 | 76 | 1010.4 |
| 20260505222743 | 49 | 27 | 4.3 | 6.1 | 0.00 | 0.39 | 0.39 | 77 | 1010.3 |
| 20260505222239 | 49 | 40 | 7.8 | 8.7 | 0.00 | 0.39 | 0.39 | 77 | 1010.2 |
| 20260505221736 | 49 | 319 | 7.0 | 9.6 | 0.00 | 0.39 | 0.39 | 77 | 1010.3 |
| 20260505221233 | 49 | 347 | 4.3 | 5.2 | 0.00 | 0.39 | 0.39 | 77 | 1010.0 |
| 20260505220730 | 50 | 28 | 7.0 | 9.6 | 0.00 | 0.39 | 0.39 | 76 | 1010.1 |
| 20260505220227 | 50 | 28 | 1.7 | 1.7 | 0.00 | 0.39 | 0.39 | 75 | 1010.1 |
| 20260505215725 | 50 | 18 | 7.0 | 8.7 | 0.00 | 0.39 | 0.39 | 75 | 1010.1 |
| 20260505215223 | 50 | 11 | 8.7 | 9.6 | 0.00 | 0.39 | 0.39 | 75 | 1010.2 |
| 20260505214720 | 50 | 343 | 7.0 | 8.7 | 0.00 | 0.39 | 0.39 | 75 | 1010.2 |
| 20260505214218 | 50 | 16 | 7.0 | 8.7 | 0.00 | 0.39 | 0.39 | 74 | 1009.8 |
| 20260505213715 | 50 | 59 | 2.6 | 5.2 | 0.00 | 0.39 | 0.39 | 74 | 1010.3 |
| 20260505213212 | 50 | 23 | 7.0 | 8.7 | 0.00 | 0.39 | 0.39 | 74 | 1010.0 |
| 20260505212708 | 50 | 357 | 7.0 | 12.2 | 0.00 | 0.39 | 0.39 | 75 | 1010.1 |
| 20260505212206 | 50 | 46 | 5.2 | 7.0 | 0.00 | 0.39 | 0.39 | 76 | 1010.1 |
| 20260505211702 | 50 | 31 | 5.2 | 7.0 | 0.00 | 0.39 | 0.39 | 76 | 1010.2 |
| 20260505211200 | 50 | 1 | 6.1 | 9.6 | 0.00 | 0.39 | 0.39 | 76 | 1010.2 |
| 20260505210656 | 50 | 24 | 4.3 | 5.2 | 0.00 | 0.39 | 0.39 | 76 | 1010.5 |
| 20260505210153 | 50 | 0 | 8.7 | 12.2 | 0.00 | 0.39 | 0.39 | 75 | 1010.3 |
| 20260505205650 | 50 | 10 | 11.3 | 13.9 | 0.00 | 0.39 | 0.39 | 75 | 1010.3 |
| 20260505205148 | 50 | 50 | 4.3 | 6.1 | 0.00 | 0.39 | 0.39 | 74 | 1010.3 |
| 20260505204645 | 50 | 32 | 8.7 | 11.3 | 0.00 | 0.39 | 0.39 | 73 | 1010.2 |
| 20260505204143 | 50 | 25 | 10.4 | 13.0 | 0.00 | 0.39 | 0.39 | 73 | 1010.1 |
| 20260505203640 | 51 | 32 | 7.0 | 8.7 | 0.00 | 0.39 | 0.39 | 72 | 1010.2 |
| 20260505203136 | 51 | 14 | 3.5 | 5.2 | 0.00 | 0.39 | 0.39 | 71 | 1010.1 |
| 20260505202632 | 51 | 11 | 1.7 | 5.2 | 0.00 | 0.39 | 0.39 | 69 | 1010.2 |
| 20260505202128 | 51 | 17 | 8.7 | 11.3 | 0.00 | 0.39 | 0.39 | 71 | 1010.2 |
| 20260505201625 | 51 | 43 | 5.2 | 7.0 | 0.00 | 0.39 | 0.39 | 71 | 1010.1 |
| 20260505201123 | 51 | 38 | 10.4 | 13.9 | 0.00 | 0.39 | 0.39 | 69 | 1010.0 |
| 20260505200621 | 51 | 88 | 8.7 | 12.2 | 0.00 | 0.39 | 0.39 | 72 | 1010.0 |
| 20260505200118 | 51 | 16 | 7.8 | 8.7 | 0.00 | 0.39 | 0.39 | 73 | 1010.2 |
| 20260505195614 | 52 | 26 | 5.2 | 7.0 | 0.00 | 0.39 | 0.39 | 73 | 1010.0 |
| 20260505195111 | 52 | 338 | 6.1 | 8.7 | 0.00 | 0.39 | 0.39 | 70 | 1010.0 |
| 20260505194608 | 52 | 26 | 6.1 | 7.8 | 0.00 | 0.39 | 0.39 | 70 | 1010.0 |
| 20260505194103 | 52 | 21 | 5.2 | 7.8 | 0.00 | 0.39 | 0.39 | 70 | 1010.0 |
| 20260505193601 | 52 | 306 | 8.7 | 12.2 | 0.00 | 0.39 | 0.39 | 69 | 1010.0 |
| 20260505193058 | 52 | 14 | 5.2 | 6.1 | 0.00 | 0.39 | 0.39 | 69 | 1010.0 |
| 20260505192557 | 52 | 28 | 7.0 | 7.8 | 0.00 | 0.39 | 0.39 | 69 | 1010.0 |
| 20260505192054 | 52 | 2 | 10.4 | 13.0 | 0.00 | 0.39 | 0.39 | 69 | 1009.5 |
| 20260505191552 | 52 | 17 | 8.7 | 12.2 | 0.00 | 0.39 | 0.39 | 69 | 1009.8 |
| 20260505191049 | 52 | 57 | 4.3 | 7.8 | 0.00 | 0.39 | 0.39 | 71 | 1009.6 |
| 20260505190544 | 52 | 40 | 10.4 | 14.8 | 0.00 | 0.39 | 0.39 | 70 | 1009.7 |
| 20260505190040 | 52 | 332 | 6.1 | 9.6 | 0.00 | 0.39 | 0.39 | 72 | 1009.7 |
| 20260505185537 | 52 | 351 | 5.2 | 7.0 | 0.00 | 0.39 | 0.39 | 74 | 1009.6 |
| 20260505185033 | 51 | 10 | 7.0 | 11.3 | 0.00 | 0.39 | 0.39 | 74 | 1009.7 |
| 20260505184530 | 52 | 46 | 2.6 | 3.5 | 0.00 | 0.39 | 0.39 | 76 | 1009.8 |
| 20260505184027 | 51 | 27 | 7.8 | 13.0 | 0.00 | 0.39 | 0.39 | 76 | 1009.5 |
| 20260505183524 | 52 | 1 | 13.0 | 20.9 | 0.00 | 0.39 | 0.39 | 76 | 1009.8 |
| 20260505183021 | 52 | 348 | 10.4 | 14.8 | 0.00 | 0.39 | 0.39 | 76 | 1009.8 |
| 20260505182517 | 52 | 31 | 9.6 | 12.2 | 0.00 | 0.39 | 0.39 | 76 | 1009.7 |
| 20260505182014 | 52 | 14 | 6.1 | 7.8 | 0.00 | 0.39 | 0.39 | 77 | 1009.8 |
| 20260505181511 | 52 | 4 | 6.1 | 8.7 | 0.00 | 0.39 | 0.39 | 78 | 1009.6 |
| 20260505181008 | 52 | 16 | 4.3 | 5.2 | 0.00 | 0.39 | 0.39 | 79 | 1009.6 |
| 20260505180504 | 52 | 0 | 6.1 | 7.8 | 0.00 | 0.39 | 0.39 | 80 | 1009.4 |
| 20260505180001 | 52 | 13 | 3.5 | 5.2 | 0.00 | 0.39 | 0.39 | 80 | 1009.5 |
| 20260505175457 | 52 | 23 | 4.3 | 7.8 | 0.00 | 0.39 | 0.39 | 79 | 1009.5 |
| 20260505174954 | 53 | 34 | 6.1 | 7.8 | 0.00 | 0.39 | 0.39 | 79 | 1009.5 |
| 20260505174451 | 53 | 356 | 5.2 | 7.0 | 0.00 | 0.39 | 0.39 | 79 | 1009.3 |
| 20260505173947 | 53 | 69 | 9.6 | 11.3 | 0.00 | 0.39 | 0.39 | 78 | 1009.2 |
| 20260505173443 | 53 | 23 | 6.1 | 9.6 | 0.00 | 0.39 | 0.39 | 79 | 1009.4 |
| 20260505172940 | 53 | 76 | 3.5 | 6.1 | 0.00 | 0.39 | 0.39 | 79 | 1009.0 |
| 20260505172439 | 53 | 90 | 5.2 | 9.6 | 0.00 | 0.39 | 0.39 | 80 | 1008.9 |
| 20260505171938 | 53 | 14 | 4.3 | 7.8 | 0.00 | 0.39 | 0.39 | 80 | 1008.9 |
| 20260505171435 | 53 | 29 | 2.6 | 2.6 | 0.00 | 0.39 | 0.39 | 80 | 1008.7 |
| 20260505170932 | 53 | 32 | 7.0 | 12.2 | 0.00 | 0.39 | 0.39 | 80 | 1008.9 |
| 20260505170428 | 53 | 16 | 3.5 | 6.1 | 0.00 | 0.39 | 0.39 | 80 | 1008.9 |
| 20260505165924 | 53 | 25 | 6.1 | 8.7 | 0.00 | 0.39 | 0.39 | 80 | 1009.0 |
| 20260505165420 | 53 | 19 | 6.1 | 11.3 | 0.00 | 0.39 | 0.39 | 80 | 1008.8 |
| 20260505164915 | 53 | 354 | 2.6 | 3.5 | 0.00 | 0.39 | 0.39 | 80 | 1009.0 |
| 20260505164413 | 53 | 350 | 7.0 | 8.7 | 0.00 | 0.39 | 0.39 | 80 | 1009.0 |
| 20260505163910 | 53 | 42 | 3.5 | 5.2 | 0.00 | 0.39 | 0.39 | 80 | 1009.3 |
| 20260505163409 | 53 | 34 | 4.3 | 5.2 | 0.00 | 0.39 | 0.39 | 80 | 1009.3 |
| 20260505162908 | 54 | 1 | 5.2 | 8.7 | 0.00 | 0.39 | 0.39 | 81 | 1009.1 |
| 20260505162403 | 54 | 28 | 7.8 | 9.6 | 0.00 | 0.39 | 0.39 | 80 | 1008.9 |
| 20260505161900 | 54 | 302 | 4.3 | 7.8 | 0.00 | 0.39 | 0.39 | 81 | 1009.0 |
| 20260505161357 | 54 | 16 | 5.2 | 7.0 | 0.00 | 0.39 | 0.39 | 80 | 1009.0 |
| 20260505160854 | 54 | 341 | 4.3 | 7.0 | 0.00 | 0.39 | 0.39 | 80 | 1008.8 |
| 20260505160353 | 54 | 25 | 4.3 | 6.1 | 0.00 | 0.39 | 0.39 | 81 | 1008.8 |
| 20260505153331 | 53 | 28 | 7.0 | 13.0 | 0.00 | 0.39 | 0.39 | 85 | 1008.7 |
| 20260505152828 | 53 | 359 | 5.2 | 7.0 | 0.00 | 0.39 | 0.39 | 86 | 1009.0 |
| 20260505152325 | 53 | 33 | 5.2 | 9.6 | 0.00 | 0.39 | 0.39 | 87 | 1008.7 |
| 20260505151820 | 53 | 6 | 5.2 | 7.0 | 0.00 | 0.39 | 0.39 | 87 | 1009.0 |
| 20260505151317 | 53 | 42 | 6.1 | 8.7 | 0.00 | 0.39 | 0.39 | 88 | 1009.2 |
| 20260505150814 | 53 | 29 | 8.7 | 11.3 | 0.00 | 0.39 | 0.39 | 88 | 1009.2 |
| 20260505150311 | 53 | 8 | 9.6 | 11.3 | 0.00 | 0.39 | 0.39 | 88 | 1009.0 |
| 20260505140241 | 54 | 52 | 4.3 | 6.1 | 0.00 | 0.39 | 0.39 | 90 | 1006.9 |
| 20260505130204 | 55 | 348 | 7.8 | 11.3 | 0.00 | 0.39 | 0.39 | 89 | 1008.0 |
| 20260505124654 | 56 | 350 | 4.3 | 7.0 | 0.00 | 0.39 | 0.39 | 89 | 1007.2 |
| 20260505124151 | 56 | 44 | 5.2 | 7.0 | 0.00 | 0.39 | 0.39 | 89 | 1007.3 |
| 20260505123647 | 56 | 17 | 2.6 | 3.5 | 0.00 | 0.39 | 0.39 | 89 | 1006.9 |
| 20260505123144 | 56 | 27 | 4.3 | 6.1 | 0.00 | 0.39 | 0.39 | 89 | 1007.1 |
| 20260505122640 | 56 | 39 | 3.5 | 3.5 | 0.00 | 0.39 | 0.39 | 89 | 1007.1 |
| 20260505122138 | 57 | 351 | 3.5 | 6.1 | 0.00 | 0.39 | 0.39 | 89 | 1007.1 |
| 20260505121634 | 57 | 28 | 3.5 | 6.1 | 0.00 | 0.39 | 0.39 | 89 | 1006.9 |
| 20260505121131 | 57 | 47 | 1.7 | 2.6 | 0.00 | 0.39 | 0.39 | 88 | 1006.6 |
| 20260505120627 | 57 | 4 | 2.6 | 2.6 | 0.00 | 0.39 | 0.39 | 89 | 1006.5 |
| 20260505120123 | 57 | 59 | 1.7 | 1.7 | 0.00 | 0.39 | 0.39 | 89 | 1006.3 |
| 20260505115618 | 58 | 3 | 2.6 | 3.5 | 0.00 | 0.39 | 0.39 | 89 | 1006.1 |
| 20260505115115 | 58 | 359 | 3.5 | 5.2 | 0.00 | 0.39 | 0.39 | 89 | 1006.2 |
| 20260505114612 | 58 | 24 | 0.9 | 1.7 | 0.00 | 0.39 | 0.39 | 89 | 1006.3 |
| 20260505114109 | 58 | 18 | 7.0 | 8.7 | 0.00 | 0.39 | 0.39 | 89 | 1006.2 |
| 20260505113605 | 59 | 13 | 2.6 | 5.2 | 0.00 | 0.39 | 0.39 | 90 | 1006.5 |
| 20260505113102 | 59 | 17 | 0.9 | 1.7 | 0.00 | 0.39 | 0.39 | 91 | 1006.1 |
| 20260505112558 | 59 | 48 | 2.6 | 3.5 | 0.00 | 0.39 | 0.39 | 91 | 1006.0 |
| 20260505112057 | 59 | 2 | 0.9 | 0.9 | 0.00 | 0.39 | 0.39 | 91 | 1005.7 |
| 20260505111556 | 59 | 21 | 3.5 | 5.2 | 0.00 | 0.39 | 0.39 | 91 | 1005.5 |
| 20260505111052 | 60 | 12 | 1.7 | 2.6 | 0.00 | 0.39 | 0.39 | 92 | 1005.7 |
| 20260505110549 | 60 | 82 | 3.5 | 3.5 | 0.00 | 0.39 | 0.39 | 93 | 1005.8 |
| 20260505102021 | 61 | 21 | 0.9 | 0.9 | 0.00 | 0.39 | 0.39 | 93 | 1005.6 |
| 20260505101520 | 61 | 5 | 3.5 | 5.2 | 0.00 | 0.39 | 0.39 | 93 | 1005.9 |
| 20260505101015 | 61 | 23 | 0.9 | 0.9 | 0.00 | 0.39 | 0.39 | 93 | 1006.0 |
| 20260505100513 | 61 | 21 | 0.9 | 1.7 | 0.00 | 0.39 | 0.39 | 93 | 1006.1 |
| 20260505100010 | 61 | 28 | 0.0 | 0.9 | 0.00 | 0.39 | 0.39 | 93 | 1006.1 |
| 20260505095506 | 61 | 14 | 1.7 | 1.7 | 0.00 | 0.39 | 0.39 | 93 | 1006.6 |
| 20260505095001 | 61 | 16 | 1.7 | 1.7 | 0.07 | 0.39 | 0.39 | 92 | 1006.4 |
| 20260505094459 | 62 | 111 | 1.7 | 2.6 | 0.07 | 0.39 | 0.39 | 92 | 1005.9 |
| 20260505093955 | 62 | 338 | 5.2 | 7.0 | 0.00 | 0.38 | 0.38 | 91 | 1006.0 |
| 20260505093451 | 62 | 25 | 0.0 | 0.0 | 0.00 | 0.38 | 0.38 | 91 | 1005.2 |
| 20260505092949 | 62 | 44 | 0.9 | 1.7 | 0.00 | 0.38 | 0.38 | 91 | 1005.2 |
| 20260505092446 | 62 | 68 | 1.7 | 1.7 | 0.00 | 0.38 | 0.38 | 91 | 1005.3 |
| 20260505091944 | 62 | 108 | 3.5 | 5.2 | 0.00 | 0.38 | 0.38 | 91 | 1005.0 |
| 20260505091441 | 62 | 193 | 4.3 | 6.1 | 0.00 | 0.38 | 0.38 | 92 | 1004.6 |
| 20260505090939 | 62 | 136 | 1.7 | 2.6 | 0.00 | 0.38 | 0.38 | 92 | 1004.5 |
| 20260505090437 | 62 | 218 | 3.5 | 6.1 | 0.00 | 0.38 | 0.38 | 91 | 1004.6 |
| 20260505085934 | 62 | 168 | 3.5 | 3.5 | 0.05 | 0.38 | 0.38 | 92 | 1005.0 |
| 20260505085431 | 62 | 119 | 1.7 | 2.6 | 0.12 | 0.38 | 0.38 | 92 | 1005.1 |
| 20260505084930 | 62 | 176 | 1.7 | 2.6 | 0.07 | 0.37 | 0.37 | 92 | 1005.3 |
| 20260505084428 | 62 | 210 | 1.7 | 2.6 | 0.07 | 0.37 | 0.37 | 92 | 1005.4 |
| 20260505083926 | 62 | 212 | 6.1 | 7.8 | 0.00 | 0.36 | 0.36 | 92 | 1005.3 |
| 20260505083423 | 62 | 173 | 3.5 | 3.5 | 0.00 | 0.36 | 0.36 | 92 | 1005.2 |
| 20260505082919 | 62 | 192 | 4.3 | 6.1 | 0.00 | 0.36 | 0.36 | 92 | 1004.8 |
| 20260505082415 | 62 | 157 | 3.5 | 5.2 | 0.00 | 0.36 | 0.36 | 92 | 1004.4 |
| 20260505081912 | 62 | 90 | 4.3 | 7.8 | 0.00 | 0.36 | 0.36 | 92 | 1004.5 |
| 20260505081408 | 62 | 118 | 4.3 | 6.1 | 0.00 | 0.36 | 0.36 | 93 | 1004.4 |
| 20260505080905 | 62 | 60 | 2.6 | 2.6 | 0.00 | 0.36 | 0.36 | 94 | 1004.4 |
| 20260505080401 | 62 | 211 | 5.2 | 8.7 | 0.00 | 0.36 | 0.36 | 94 | 1004.3 |
| 20260505075857 | 62 | 176 | 6.1 | 7.8 | 0.00 | 0.36 | 0.36 | 94 | 1003.6 |
| 20260505075354 | 62 | 106 | 5.2 | 7.0 | 0.05 | 0.36 | 0.36 | 94 | 1003.6 |
| 20260505074851 | 62 | 189 | 5.2 | 5.2 | 0.05 | 0.36 | 0.36 | 95 | 1004.1 |
| 20260505074348 | 62 | 154 | 8.7 | 13.0 | 0.05 | 0.36 | 0.36 | 95 | 1004.0 |
| 20260505073845 | 62 | 127 | 6.1 | 8.7 | 0.00 | 0.35 | 0.35 | 95 | 1004.7 |
| 20260505073343 | 62 | 142 | 5.2 | 8.7 | 0.00 | 0.35 | 0.35 | 95 | 1004.8 |
| 20260505072840 | 62 | 194 | 4.3 | 6.1 | 0.00 | 0.35 | 0.35 | 95 | 1005.1 |
| 20260505072336 | 62 | 171 | 4.3 | 7.8 | 0.00 | 0.35 | 0.35 | 95 | 1005.4 |
| 20260505071832 | 62 | 79 | 4.3 | 6.1 | 0.07 | 0.35 | 0.35 | 95 | 1006.3 |
| 20260505071329 | 62 | 73 | 1.7 | 2.6 | 0.12 | 0.35 | 0.35 | 94 | 1006.8 |
| 20260505070827 | 62 | 107 | 1.7 | 2.6 | 0.17 | 0.34 | 0.34 | 94 | 1006.6 |
| 20260505070323 | 62 | 247 | 2.6 | 3.5 | 0.38 | 0.33 | 0.33 | 94 | 1007.3 |
| 20260505065818 | 62 | 128 | 3.5 | 6.1 | 0.38 | 0.31 | 0.31 | 93 | 1007.1 |
| 20260505065316 | 62 | 209 | 2.6 | 3.5 | 0.31 | 0.28 | 0.28 | 93 | 1008.0 |
| 20260505064813 | 62 | 183 | 1.7 | 1.7 | 0.28 | 0.25 | 0.25 | 93 | 1007.9 |
| 20260505064310 | 62 | 13 | 0.0 | 0.9 | 0.28 | 0.23 | 0.23 | 92 | 1007.8 |
| 20260505063808 | 62 | 304 | 2.6 | 3.5 | 0.35 | 0.21 | 0.21 | 91 | 1007.9 |
| 20260505063304 | 62 | 225 | 3.5 | 5.2 | 0.38 | 0.18 | 0.18 | 91 | 1007.9 |
| 20260505062800 | 63 | 275 | 4.3 | 6.1 | 0.35 | 0.15 | 0.15 | 90 | 1008.0 |
| 20260505062258 | 63 | 196 | 6.1 | 7.8 | 0.24 | 0.12 | 0.12 | 88 | 1008.3 |
| 20260505061754 | 63 | 259 | 3.5 | 5.2 | 0.19 | 0.09 | 0.09 | 87 | 1007.7 |
| 20260505061252 | 64 | 266 | 3.5 | 3.5 | 0.31 | 0.08 | 0.08 | 85 | 1007.0 |
| 20260505060750 | 64 | 171 | 4.3 | 5.2 | 0.31 | 0.06 | 0.06 | 82 | 1006.8 |
| 20260505060247 | 66 | 293 | 2.6 | 2.6 | 0.17 | 0.03 | 0.03 | 79 | 1006.6 |
| 20260505055742 | 67 | 125 | 7.0 | 7.8 | 0.05 | 0.01 | 0.01 | 76 | 1006.2 |
| 20260505055238 | 67 | 200 | 7.8 | 8.7 | 0.05 | 0.01 | 0.01 | 72 | 1006.0 |
| 20260505054736 | 68 | 129 | 5.2 | 7.8 | 0.00 | 0.00 | 0.00 | 69 | 1005.4 |
| 20260505054234 | 69 | 192 | 4.3 | 5.2 | 0.00 | 0.00 | 0.00 | 68 | 1005.4 |
| 20260505053732 | 69 | 171 | 5.2 | 7.0 | 0.00 | 0.00 | 0.00 | 66 | 1005.5 |
| 20260505053228 | 69 | 167 | 2.6 | 3.5 | 0.00 | 0.00 | 0.00 | 65 | 1005.5 |
| 20260505052725 | 69 | 148 | 2.6 | 3.5 | 0.00 | 0.00 | 0.00 | 64 | 1005.2 |
| 20260505052222 | 69 | 89 | 1.7 | 1.7 | 0.00 | 0.00 | 0.00 | 64 | 1005.2 |
| 20260505051719 | 69 | 176 | 2.6 | 3.5 | 0.00 | 0.00 | 0.00 | 64 | 1005.4 |
| 20260505051217 | 69 | 170 | 1.7 | 1.7 | 0.00 | 0.00 | 0.00 | 64 | 1005.4 |
| 20260505050715 | 69 | 84 | 3.5 | 6.1 | 0.00 | 0.00 | 0.00 | 65 | 1005.5 |
| 20260505050213 | 69 | 143 | 5.2 | 7.0 | 0.00 | 0.00 | 0.00 | 65 | 1005.5 |
| 20260505041648 | 69 | 172 | 4.3 | 5.2 | 0.00 | 0.00 | 0.00 | 65 | 1005.5 |
| 20260505041146 | 69 | 176 | 3.5 | 5.2 | 0.00 | 0.00 | 0.00 | 65 | 1005.3 |
| 20260505040643 | 69 | 138 | 2.6 | 3.5 | 0.00 | 0.00 | 0.00 | 65 | 1005.5 |
| 20260505040140 | 69 | 108 | 1.7 | 1.7 | 0.00 | 0.00 | 0.00 | 65 | 1005.3 |
| 20260505035636 | 69 | 108 | 3.5 | 3.5 | 0.00 | 0.00 | 0.00 | 64 | 1005.5 |
| 20260505035132 | 69 | 152 | 1.7 | 1.7 | 0.00 | 0.00 | 0.00 | 64 | 1005.9 |
| 20260505034629 | 69 | 84 | 1.7 | 1.7 | 0.00 | 0.00 | 0.00 | 64 | 1006.2 |
| 20260505034126 | 70 | 228 | 5.2 | 7.0 | 0.00 | 0.00 | 0.00 | 64 | 1006.2 |
| 20260505033622 | 70 | 117 | 3.5 | 3.5 | 0.00 | 0.00 | 0.00 | 63 | 1006.1 |
| 20260505033121 | 70 | 189 | 6.1 | 7.8 | 0.00 | 0.00 | 0.00 | 63 | 1005.9 |
| 20260505032619 | 70 | 218 | 3.5 | 3.5 | 0.00 | 0.00 | 0.00 | 63 | 1006.0 |
| 20260505032115 | 70 | 166 | 4.3 | 6.1 | 0.00 | 0.00 | 0.00 | 63 | 1006.0 |
| 20260505031612 | 70 | 310 | 2.6 | 3.5 | 0.00 | 0.00 | 0.00 | 63 | 1006.0 |
| 20260505031108 | 70 | 191 | 4.3 | 7.0 | 0.00 | 0.00 | 0.00 | 62 | 1005.9 |
| 20260505030605 | 71 | 117 | 1.7 | 1.7 | 0.00 | 0.00 | 0.00 | 62 | 1005.7 |
| 20260505025557 | 71 | 255 | 2.6 | 2.6 | 0.00 | 0.00 | 0.00 | 61 | 1005.9 |
| 20260505025056 | 71 | 90 | 3.5 | 5.2 | 0.00 | 0.00 | 0.00 | 61 | 1005.9 |
| 20260505024553 | 71 | 73 | 1.7 | 1.7 | 0.00 | 0.00 | 0.00 | 60 | 1005.8 |
| 20260505024050 | 71 | 50 | 0.9 | 0.9 | 0.00 | 0.00 | 0.00 | 60 | 1005.9 |
| 20260505023547 | 71 | 132 | 4.3 | 6.1 | 0.00 | 0.00 | 0.00 | 59 | 1005.9 |
| 20260505023045 | 71 | 197 | 4.3 | 7.0 | 0.00 | 0.00 | 0.00 | 59 | 1005.7 |
| 20260505022542 | 72 | 113 | 1.7 | 1.7 | 0.00 | 0.00 | 0.00 | 59 | 1005.7 |
| 20260505022039 | 72 | 108 | 5.2 | 7.0 | 0.00 | 0.00 | 0.00 | 58 | 1005.9 |
| 20260505021536 | 72 | 142 | 3.5 | 5.2 | 0.00 | 0.00 | 0.00 | 58 | 1005.8 |
| 20260505021033 | 72 | 129 | 3.5 | 3.5 | 0.00 | 0.00 | 0.00 | 58 | 1005.7 |
| 20260505020532 | 72 | 118 | 3.5 | 5.2 | 0.00 | 0.00 | 0.00 | 58 | 1005.9 |
| 20260505020030 | 72 | 139 | 2.6 | 2.6 | 0.00 | 0.00 | 0.00 | 58 | 1005.6 |
| 20260505015527 | 72 | 146 | 3.5 | 3.5 | 0.00 | 0.00 | 0.00 | 57 | 1005.5 |
| 20260505015023 | 72 | 200 | 2.6 | 3.5 | 0.00 | 0.00 | 0.00 | 58 | 1005.5 |
| 20260505014520 | 72 | 167 | 3.5 | 5.2 | 0.00 | 0.00 | 0.00 | 57 | 1005.5 |
| 20260505014018 | 72 | 102 | 3.5 | 5.2 | 0.00 | 0.00 | 0.00 | 57 | 1005.5 |
| 20260505013515 | 72 | 172 | 3.5 | 3.5 | 0.00 | 0.00 | 0.00 | 57 | 1005.6 |
| 20260505013012 | 73 | 183 | 2.6 | 3.5 | 0.00 | 0.00 | 0.00 | 58 | 1005.6 |
| 20260505012510 | 73 | 163 | 4.3 | 6.1 | 0.00 | 0.00 | 0.00 | 57 | 1005.4 |
| 20260505012007 | 73 | 179 | 3.5 | 3.5 | 0.00 | 0.00 | 0.00 | 57 | 1005.2 |
| 20260505011502 | 73 | 44 | 0.9 | 0.9 | 0.00 | 0.00 | 0.00 | 57 | 1005.4 |
| 20260505011000 | 73 | 176 | 2.6 | 3.5 | 0.00 | 0.00 | 0.00 | 56 | 1005.5 |
| 20260505010455 | 73 | 146 | 3.5 | 5.2 | 0.00 | 0.00 | 0.00 | 55 | 1005.6 |
| 20260505005951 | 74 | 227 | 5.2 | 7.0 | 0.00 | 0.00 | 0.00 | 55 | 1005.5 |
| 20260505005448 | 74 | 124 | 5.2 | 6.1 | 0.00 | 0.00 | 0.00 | 54 | 1005.4 |
| 20260505004946 | 74 | 225 | 4.3 | 6.1 | 0.00 | 0.00 | 0.00 | 54 | 1005.4 |
| 20260505004442 | 74 | 161 | 3.5 | 3.5 | 0.00 | 0.00 | 0.00 | 54 | 1005.1 |
| 20260505003939 | 74 | 71 | 2.6 | 3.5 | 0.00 | 0.00 | 0.00 | 54 | 1005.1 |
| 20260505003436 | 75 | 204 | 4.3 | 6.1 | 0.00 | 0.00 | 0.00 | 54 | 1005.1 |
| 20260505002932 | 75 | 217 | 6.1 | 8.7 | 0.00 | 0.00 | 0.00 | 53 | 1005.1 |
| 20260505002429 | 75 | 202 | 6.1 | 8.7 | 0.00 | 0.00 | 0.00 | 53 | 1005.4 |
| 20260505001927 | 75 | 202 | 7.0 | 8.7 | 0.00 | 0.00 | 0.00 | 52 | 1005.2 |
| 20260505001425 | 75 | 228 | 7.8 | 9.6 | 0.00 | 0.00 | 0.00 | 52 | 1005.3 |
| 20260505000922 | 76 | 205 | 3.5 | 3.5 | 0.00 | 0.00 | 0.00 | 52 | 1005.2 |
| 20260505000420 | 76 | 182 | 4.3 | 5.2 | 0.00 | 0.00 | 0.00 | 51 | 1004.8 |
| 20260504235916 | 76 | 263 | 5.2 | 7.0 | 0.00 | 0.00 | 0.00 | 51 | 1004.9 |
| 20260504235414 | 76 | 238 | 4.3 | 6.1 | 0.00 | 0.00 | 0.00 | 50 | 1005.0 |
| 20260504234909 | 76 | 170 | 6.1 | 8.7 | 0.00 | 0.00 | 0.00 | 50 | 1005.0 |
| 20260504234407 | 77 | 228 | 9.6 | 12.2 | 0.00 | 0.00 | 0.00 | 50 | 1004.8 |
| 20260504233903 | 77 | 230 | 4.3 | 5.2 | 0.00 | 0.00 | 0.00 | 50 | 1004.8 |
| 20260504233359 | 77 | 155 | 4.3 | 6.1 | 0.00 | 0.00 | 0.00 | 50 | 1004.9 |
| 20260504232856 | 77 | 127 | 3.5 | 5.2 | 0.00 | 0.00 | 0.00 | 50 | 1004.8 |
| 20260504232353 | 77 | 248 | 3.5 | 5.2 | 0.00 | 0.00 | 0.00 | 49 | 1004.8 |
| 20260504231850 | 78 | 38 | 5.2 | 7.0 | 0.00 | 0.00 | 0.00 | 48 | 1005.0 |
| 20260504231346 | 78 | 136 | 6.1 | 7.8 | 0.00 | 0.00 | 0.00 | 47 | 1004.9 |